SCP
0 0 0 0 0 0 0 0 0 0 0 0 0 0 0 0 0 0 0 0 0 0 0 0 0 0 0 0 0 0 0 0 0 0 0 0 0 0 0 0 0 0 0 0 0 0 0 0 0
0 0 0 0 0 0 0 0 0 0 0 0 0 0 0 0 0 0 0 0 0 0 0 0 0 0 0 0 0 0 0 0 0 0 0 0 0 0 0 0 0 0 0 0 0 0 0 0 0
0 0 0 0 0 0 0 0 0 0 0 0 0 0 0 0 0 0 0 0 0 0 0 0 0 0 0 0 0 0 0 0 0 0 0 0 0 0 0 0 0 0 0 0 0 0 0 0 0
0 0 0 0 0 0 0 0 0 0 0 0 0 0 0 0 0 0 0 0 0 0 0 0 0 0 0 0 0 0 0 0 0 0 0 0 0 0 0 0 0 0 0 0 0 0 0 0 0
0 0 0 0 0 0 0 0 0 0 0 0 0 0 0 0 0 0 0 0 0 0 0 0 0 0 0 0 0 0 0 0 0 0 0 0 0 0 0 0 0 0 0 0 0 0 0 0 0
0 0 0 0 0 0 0 0 0 0 0 0 0 0 0 0 0 0 0 0 0 0 0 0 0 0 0 0 0 0 0 0 0 0 0 0 0 0 0 0 0 0 0 0 0 0 0 0 0
0 0 0 0 0 0 0 0 0 0 0 0 0 0 0 0 0 0 0 0 0 0 0 0 0 0 0 0 0 0 0 0 0 0 0 0 0 0 0 0 0 0 0 0 0 0 0 0 0
0 0 0 0 0 0 0 0 0 0 0 0 0 0 0 0 0 0 0 0 0 0 0 0 0 0 0 0 0 0 0 0 0 0 0 0 0 0 0 0 0 0 0 0 0 0 0 0 0
0 0 0 0 0 0 0 0 0 0 0 0 0 0 0 0 0 0 0 0 0 0 0 0 0 0 0 0 0 0 0 0 0 0 0 0 0 0 0 0 0 0 0 0 0 0 0 0 0
0 0 0 0 0 0 0 0 0 0 0 0 0 0 0 0 0 0 0 0 0 0 0 0 0 0 0 0 0 0 0 0 0 0 0 0 0 0 0 0 0 0 0 0 0 0 0 0 0
0 0 0 0 0 0 0 0 0 0 0 0 0 0 0 0 0 0 0 0 0 0 0 0 0 0 0 0 0 0 0 0 0 0 0 0 0 0 0 0 0 0 0 0 0 0 0 0 0
0 0 0 0 0 0 0 0 0 0 0 0 0 0 0 0 0 0 0 0 0 0 0 0 0 0 0 0 0 0 0 0 0 0 0 0 0 0 0 0 0 0 0 0 0 0 0 0 0
0 0 0 0 0 0 0 0 0 0 0 0 0 0 0 0 0 0 0 0 0 0 0 0 0 0 0 0 0 0 0 0 0 0 0 0 0 0 0 0 0 0 0 0 0 0 0 0 0
0 0 0 0 0 0 0 0 0 0 0 0 0 0 0 0 0 0 0 0 0 0 0 0 0 0 0 0 0 0 0 0 0 0 0 0 0 0 0 0 0 0 0 0 0 0 0 0 0
0 0 0 0 0 0 0 0 0 0 0 0 0 0 0 0 0 0 0 0 0 0 0 0 0 0 0 0 0 0 0 0 0 0 0 0 0 0 0 0 0 0 0 0 0 0 0 0 0
0 0 0 0 0 0 0 0 0 0 0 0 0 0 0 0 0 0 0 0 0 0 0 0 0 0 0 0 0 0 0 0 0 0 0 0 0 0 0 0 0 0 0 0 0 0 0 0 0
0 0 0 0 0 0 0 0 0 0 0 0 0 0 0 0 0 0 0 0 0 0 0 0 0 0 0 0 0 0 0 0 0 0 0 0 0 0 0 0 0 0 0 0 0 0 0 0 0
0 0 0 0 0 0 0 0 0 0 0 0 0 0 0 0 0 0 0 0 0 0 0 0 0 0 0 0 0 0 0 0 0 0 0 0 0 0 0 0 0 0 0 0 0 0 0 0 0
0 0 0 0 0 0 0 0 0 0 0 0 0 0 0 0 0 0 0 0 0 0 0 0 0 0 0 0 0 0 0 0 0 0 0 0 0 0 0 0 0 0 0 0 0 0 0 0 0
0 0 0 0 0 0 0 0 0 0 0 0 0 0 0 0 0 0 0 0 0 0 0 0 0 0 0 0 0 0 0 0 0 0 0 0 0 0 0 0 0 0 0 0 0 0 0 0 0
0 0 0 0 0 0 0 0 0 0 0 0 0 0 0 0 0 0 0 0 0 0 0 0 0 0 0 0 0 0 0 0 0 0 0 0 0 0 0 0 0 0 0 0 0 0 0 0 0
0 0 0 0 0 0 0 0 0 0 0 0 0 0 0 0 0 0 0 0 0 0 0 0 0 0 0 0 0 0 0 0 0 0 0 0 0 0 0 0 0 0 0 0 0 0 0 0 0
0 0 0 0 0 0 0 0 0 0 0 0 0 0 0 0 0 0 0 0 0 0 0 0 0 0 0 0 0 0 0 0 0 0 0 0 0 0 0 0 0 0 0 0 0 0 0 0 0
0 0 0 0 0 0 0 0 0 0 0 0 0 0 0 0 0 0 0 0 0 0 0 0 0 0 0 0 0 0 0 0 0 0 0 0 0 0 0 0 0 0 0 0 0 0 0 0 0
0 0 0 0 0 0 0 0 0 0 0 0 0 0 0 0 0 0 0 0 0 0 0 0 0 0 0 0 0 0 0 0 0 0 0 0 0 0 0 0 0 0 0 0 0 0 0 0 0
0 0 0 0 0 0 0 0 0 0 0 0 0 0 0 0 0 0 0 0 0 0 0 0 0 0 0 0 0 0 0 0 0 0 0 0 0 0 0 0 0 0 0 0 0 0 0 0 0
0 0 0 0 0 0 0 0 0 0 0 0 0 0 0 0 0 0 0 0 0 0 0 0 0 0 0 0 0 0 0 0 0 0 0 0 0 0 0 0 0 0 0 0 0 0 0 0 0
0 0 0 0 0 0 0 0 0 0 0 0 0 0 0 0 0 0 0 0 0 0 0 0 0 0 0 0 0 0 0 0 0 0 0 0 0 0 0 0 0 0 0 0 0 0 0 0 0
0 0 0 0 0 0 0 0 0 0 0 0 0 0 0 0 0 0 0 0 0 0 0 0 0 0 0 0 0 0 0 0 0 0 0 0 0 0 0 0 0 0 0 0 0 0 0 0 0
0 0 0 0 0 0 0 0 0 0 0 0 0 0 0 0 0 0 0 0 0 0 0 0 0 0 0 0 0 0 0 0 0 0 0 0 0 0 0 0 0 0 0 0 0 0 0 0 0
Wind_Speed
3 2 2 4 6 4 3 5 3 2 3 1 3 7 9 7 6 4 2 10 10 11 11 15 19 17 17 16 16 14 14 13 13 12 12 12 12 12 12 12 12 12 12 13 13 13 13 14 14
1 1 4 5 5 1 5 5 5 5 4 4 4 4 5 3 1 5 5 8 11 12 10 11 19 18 17 17 16 15 14 14 13 12 11 11 11 11 11 12 12 12 12 12 12 12 12 13 13
1 3 4 5 4 6 5 5 6 2 3 3 3 2 3 4 4 7 6 11 11 11 9 12 20 19 18 17 16 15 14 14 13 12 12 11 11 11 11 11 11 11 11 11 11 11 12 12 12
3 4 5 3 4 6 5 4 3 3 2 2 4 3 0 1 5 5 9 12 12 10 8 12 20 19 18 17 17 16 15 14 13 12 12 11 11 11 11 11 10 10 10 10 10 11 11 11 11
4 4 2 1 5 5 5 4 4 4 4 3 5 6 2 2 3 8 12 13 14 10 8 10 19 19 19 18 17 16 15 14 13 12 12 11 11 10 10 10 10 10 10 10 9 9 9 9 9
4 4 3 4 5 5 4 3 4 3 3 3 6 7 3 1 5 9 12 11 11 11 9 9 19 19 18 18 17 16 15 14 13 13 12 11 11 11 10 9 9 9 9 9 8 8 8 8 8
5 4 4 4 3 4 4 3 5 5 4 6 7 7 2 2 5 9 9 9 8 8 8 7 9 13 17 17 17 16 15 14 13 13 12 11 11 10 10 9 9 8 8 8 7 7 7 7 7
5 4 3 3 4 5 2 2 3 6 4 3 6 8 6 6 8 10 9 8 8 7 7 6 7 7 8 10 15 16 15 15 14 13 11 11 10 9 9 8 8 7 7 6 6 6 6 6 6
4 3 4 6 6 5 2 2 1 2 5 2 1 2 2 13 14 13 9 8 9 9 7 6 7 7 7 7 11 12 13 13 12 10 11 9 4 4 5 6 7 6 6 5 4 4 5 6 5
4 5 8 5 5 3 2 3 3 3 3 2 1 2 7 14 16 17 15 16 16 15 12 8 8 8 8 7 6 6 6 6 6 5 6 5 4 3 4 5 5 5 4 3 3 4 5 5 3
6 8 6 5 4 3 2 2 2 6 4 7 8 8 12 12 14 15 16 17 17 15 13 11 10 9 8 6 5 4 4 4 5 6 6 5 4 3 3 2 1 1 2 2 3 3 2 2 2
5 6 5 4 3 3 3 2 2 6 7 5 6 11 13 16 17 17 17 15 13 13 15 12 11 10 9 7 6 5 4 4 4 5 7 5 3 3 2 2 1 1 1 1 1 1 2 2 2
6 4 5 5 4 3 3 4 4 6 5 1 5 10 14 16 16 15 13 11 11 14 15 14 13 12 10 8 6 6 6 6 6 5 6 6 5 4 3 2 2 2 1 1 1 0 1 1 2
7 6 5 4 4 3 4 5 3 8 4 3 6 10 13 15 16 11 10 12 14 15 16 15 15 14 11 9 8 7 6 6 6 5 6 7 5 5 4 3 3 2 2 2 1 1 0 1 1
3 3 4 6 5 4 3 8 9 9 4 5 7 9 11 12 11 14 15 16 16 16 15 16 15 14 13 12 10 7 7 7 7 6 7 7 6 6 5 4 3 3 3 2 1 1 1 0 1
4 4 6 6 7 6 7 12 9 6 7 8 8 8 9 11 12 13 13 12 12 12 14 16 14 15 15 13 10 8 8 8 7 6 6 8 8 7 5 4 4 4 3 3 2 1 1 0 0
4 6 8 6 6 6 8 10 8 5 7 9 9 9 10 10 11 12 12 12 12 14 15 16 16 17 16 14 10 8 8 8 7 7 7 8 8 8 6 5 4 4 3 3 2 1 1 1 1
8 7 6 8 5 7 8 9 8 5 6 9 8 8 9 11 15 13 12 12 12 12 13 15 16 15 14 11 8 7 7 7 7 7 8 9 8 9 7 5 5 5 4 3 3 2 1 1 0
7 7 7 6 4 7 9 12 12 8 6 9 9 9 10 13 12 9 9 10 10 11 13 15 16 15 13 11 11 10 10 9 8 8 9 10 9 10 8 6 6 6 5 5 5 3 2 1 1
7 7 6 4 3 5 6 11 11 9 9 10 11 12 12 11 9 8 8 9 12 14 15 16 16 16 16 13 12 9 8 6 6 6 8 10 10 10 9 8 7 7 5 5 5 4 3 1 1
12 11 8 5 1 1 2 8 8 8 7 8 9 10 10 12 12 10 9 10 11 14 16 15 17 16 17 13 8 6 5 4 5 7 8 9 10 10 9 10 8 7 7 6 6 6 6 3 1
16 10 8 5 2 4 2 7 8 7 7 9 11 10 11 11 11 9 9 9 12 14 13 14 15 15 15 14 13 14 11 11 11 8 8 8 10 10 10 10 9 8 7 7 7 6 5 5 3
7 8 8 6 4 4 3 5 9 5 9 11 11 12 11 11 10 10 10 10 11 11 11 12 12 13 14 15 16 16 12 9 6 6 8 9 8 9 10 10 9 8 7 7 7 6 6 5 4
7 6 3 2 2 11 11 8 10 8 11 9 9 9 10 9 8 8 7 6 6 7 8 9 11 13 14 16 16 16 14 11 10 9 10 8 6 7 9 9 9 9 7 8 8 7 8 6 5
10 8 5 6 8 11 7 10 13 10 10 11 10 10 8 7 6 6 6 6 7 8 9 10 12 12 13 15 15 16 14 14 14 12 11 10 7 7 10 9 9 8 8 8 7 7 7 7 6
14 13 10 9 8 5 6 12 11 9 8 8 9 8 6 7 6 7 7 7 7 9 9 10 12 11 13 14 14 13 12 10 9 10 10 11 9 9 10 11 10 9 9 8 7 6 7 6 6
12 13 8 4 2 3 7 8 10 6 7 8 8 8 9 8 8 7 6 6 7 8 9 11 12 11 12 13 12 11 12 11 10 10 9 8 7 7 10 10 10 9 9 9 8 6 7 7 6
10 10 7 8 8 7 6 7 7 6 10 10 9 10 10 8 7 6 6 6 5 6 6 7 9 10 10 11 11 9 11 11 10 9 10 9 9 8 10 10 10 9 9 8 8 6 6 6 6
10 11 8 7 6 8 6 9 9 12 12 12 13 11 9 9 8 7 5 4 4 4 5 6 7 7 8 10 10 9 10 10 9 9 10 10 9 9 10 10 10 10 9 8 8 7 7 7 6
8 12 11 10 8 7 5 9 6 8 7 7 9 8 7 7 6 5 4 4 4 5 5 6 7 7 8 8 9 9 9 9 9 9 9 9 9 9 9 9 9 9 9 9 9 8 8 8 8
Wind_Direction
348 49 76 59 57 54 236 241 225 221 214 200 149 152 158 164 169 192 141 146 140 151 165 167 160 156 151 146 142 139 134 129 124 119 114 110 105 101 99 95 90 87 84 82 81 81 81 79 77
88 93 59 63 96 169 256 238 220 217 184 125 95 113 138 174 160 131 142 165 148 153 159 162 162 158 154 149 145 142 138 133 129 125 122 117 112 106 101 97 94 92 89 86 85 85 84 81 79
124 62 86 85 142 190 226 222 213 221 163 150 120 123 159 163 163 173 176 157 145 152 156 165 162 160 158 153 150 146 143 139 136 133 129 124 120 113 107 102 99 97 94 91 89 88 86 84 81
91 53 60 94 219 224 226 229 188 142 168 171 137 117 101 42 173 174 147 149 146 152 155 167 164 163 160 156 153 150 147 145 143 139 135 130 125 120 114 109 104 101 98 95 92 90 87 84 80
64 83 83 256 246 249 243 238 186 172 181 169 144 140 142 16 103 131 144 151 152 153 157 169 166 164 162 159 157 155 153 151 148 144 141 135 130 124 120 116 112 107 103 98 94 91 88 84 80
65 77 123 229 252 267 258 208 166 177 175 162 146 143 165 97 133 147 149 151 153 155 158 168 168 166 165 164 161 160 159 156 154 150 146 141 137 133 129 125 120 114 108 102 96 92 89 85 81
120 124 183 212 251 269 247 177 173 174 180 193 163 142 205 164 159 144 140 138 144 152 157 169 167 167 169 168 166 164 163 161 159 156 151 146 143 141 136 132 128 120 112 105 99 93 88 82 76
138 131 186 212 218 249 250 179 181 169 192 162 146 153 200 180 141 128 124 132 145 156 164 168 163 162 165 168 168 167 166 164 163 159 152 149 148 146 141 137 134 128 120 111 103 92 81 71 62
110 113 205 210 201 235 238 190 185 151 131 141 186 184 171 134 136 135 138 151 166 175 178 172 165 162 160 162 170 166 167 166 163 158 152 143 124 121 131 142 146 141 131 121 107 88 68 57 44
134 186 218 213 199 211 216 199 179 128 138 162 141 70 117 141 151 159 168 175 182 186 186 180 173 167 162 167 164 161 160 160 152 143 141 127 126 129 129 155 155 147 133 114 86 59 53 50 30
176 201 219 233 222 214 209 221 182 149 195 204 192 171 153 160 167 175 181 185 188 186 185 185 179 172 168 165 160 158 153 149 146 147 142 136 130 125 116 116 119 88 77 56 40 37 36 34 21
191 224 214 226 211 208 208 200 195 191 217 217 190 160 166 172 182 186 188 191 185 185 191 186 182 177 174 167 166 162 160 159 160 160 153 146 143 143 144 144 145 118 94 92 57 39 18 17 12
210 230 221 232 241 236 228 227 219 235 239 172 135 155 178 186 193 197 194 185 183 190 192 190 185 183 179 172 172 172 172 171 168 164 164 160 159 163 164 168 169 174 162 156 149 81 8 2 359
210 216 236 239 230 228 226 252 220 245 220 171 168 183 194 197 198 193 188 188 192 196 195 191 190 188 182 182 181 179 177 172 169 172 173 169 166 167 169 175 181 191 185 178 175 185 179 348 353
180 200 256 238 215 220 195 263 233 233 183 198 206 206 207 213 206 202 199 198 197 197 193 192 192 189 188 188 185 181 180 176 179 180 176 175 172 172 173 176 190 197 184 172 159 151 117 28 3
157 187 237 242 196 196 174 250 254 230 194 220 224 221 219 221 217 216 211 206 198 192 192 193 192 192 193 192 188 185 183 182 184 180 179 181 179 175 173 181 195 186 169 165 163 158 140 33 340
175 199 217 243 201 177 189 240 252 219 195 226 231 225 224 229 230 224 215 209 200 194 192 192 193 194 194 193 189 186 184 187 185 181 183 186 184 180 178 187 191 174 167 169 170 152 154 187 270
194 195 202 215 207 177 207 241 258 244 206 230 238 237 230 229 232 223 213 209 202 195 192 194 195 195 191 188 183 182 186 191 188 189 191 185 187 184 183 186 184 171 167 172 169 160 148 150 178
177 181 204 219 203 183 220 242 252 251 231 239 241 239 236 236 238 227 213 204 196 193 192 193 194 193 186 187 189 190 196 194 194 195 192 189 188 186 186 187 180 177 182 184 172 158 154 154 122
197 201 211 242 205 199 237 253 252 242 230 226 229 233 234 237 243 231 213 198 197 197 196 195 195 192 190 193 192 193 187 190 192 186 190 192 191 189 190 188 185 183 180 176 175 164 153 149 133
210 206 202 207 321 275 283 282 259 254 233 237 233 232 232 229 233 230 215 207 201 201 198 196 196 193 193 187 176 162 149 148 174 189 194 196 193 191 190 190 185 184 181 186 186 178 168 171 169
222 205 188 194 204 262 213 274 269 249 256 245 241 237 236 234 232 228 216 209 204 205 198 196 194 193 190 182 180 179 186 192 195 189 191 189 191 191 190 188 187 185 185 187 187 181 175 162 173
205 176 185 196 211 264 235 251 270 248 250 248 240 237 236 233 227 224 217 210 205 198 192 193 189 190 187 185 187 188 194 196 177 169 179 186 190 192 190 188 187 187 189 188 180 176 179 176 173
157 121 116 134 187 245 223 219 264 222 221 236 237 234 233 231 225 224 216 199 194 186 185 183 184 188 186 187 189 192 193 182 171 177 184 188 187 190 191 188 190 189 188 188 187 184 182 184 179
169 149 169 193 209 237 193 213 246 226 218 220 231 238 235 227 220 219 208 195 190 185 185 182 184 188 186 188 191 195 193 186 186 185 187 185 185 192 194 189 191 190 191 189 182 182 186 185 185
187 179 184 191 203 231 190 226 246 235 234 235 238 241 236 226 220 220 214 201 195 190 184 183 187 188 185 188 193 193 190 190 193 189 186 190 194 195 187 188 191 191 187 185 181 184 188 185 190
178 198 188 163 164 212 232 258 289 254 249 242 239 235 232 226 219 218 212 199 193 188 188 187 187 186 187 189 189 189 189 190 191 188 186 189 189 183 181 186 189 189 186 184 180 189 190 185 193
176 161 162 183 182 220 248 238 234 225 224 226 226 227 228 221 217 213 207 201 194 189 186 184 186 187 185 185 187 189 190 192 189 184 188 188 184 178 178 184 187 186 186 183 182 187 186 185 194
167 180 178 177 189 185 224 249 218 207 207 212 221 222 216 211 210 207 205 196 181 170 170 176 180 178 179 183 184 184 188 187 184 188 191 188 183 180 182 185 185 186 186 183 184 189 182 189 195
178 182 177 187 204 191 199 258 244 215 223 219 228 226 216 211 205 196 189 175 172 175 175 177 178 179 181 179 179 185 183 181 185 190 188 184 183 183 183 181 183 186 186 184 187 190 188 192 197